Temp
-5 -5 -5 -4 -4 -4 -3 -3 -3 -3 -2 -2 -1 -1 -1 -1 -1 -0 1 1 3 4 5 6 8 9 9 10 9 9 9 9 8 1 2 2 2 3 4 5 6 4 3
-5 -5 -5 -5 -5 -4 -4 -4 -4 -3 -3 -2 -2 -1 -1 -1 -0 0 1 2 2 3 4 5 7 9 9 9 8 8 8 9 5 1 -0 -0 0 0 1 1 1 1 0
-6 -5 -5 -5 -6 -5 -5 -5 -4 -3 -3 -2 -2 -2 -1 -1 -1 0 1 1 2 2 4 5 7 8 9 8 8 7 7 7 6 2 -0 0 -1 -0 -1 -1 -2 -2 -2
-6 -6 -6 -6 -6 -6 -5 -4 -4 -3 -3 -2 -2 -2 -1 -1 -0 -0 1 1 2 2 2 3 5 8 7 7 6 6 7 5 3 0 -1 -2 -3 -3 -3 -4 -4 -3 -3
-5 -5 -6 -6 -5 -5 -5 -4 -4 -3 -3 -2 -2 -1 -1 -1 -0 -0 -1 1 2 2 2 2 4 7 7 8 7 5 4 2 0 -1 -2 -3 -4 -4 -4 -4 -6 -5 -5
-5 -5 -5 -6 -6 -5 -5 -5 -4 -4 -3 -3 -2 -1 -1 -1 -0 -0 0 1 1 1 1 3 5 6 7 7 6 5 5 3 -0 -1 -2 -2 -3 -3 -4 -5 -7 -7 -7
-5 -5 -4 -5 -5 -5 -5 -5 -5 -4 -4 -3 -3 -2 -1 -0 1 1 1 1 1 1 1 1 2 2 2 3 2 2 2 2 3 2 -2 -3 -4 -4 -5 -6 -6 -6 -7
-4 -5 -4 -4 -5 -5 -5 -5 -5 -5 -4 -4 -3 -3 -3 -2 -2 -2 -0 -1 -1 -1 -1 -1 -1 -0 0 1 1 -0 -1 -0 1 1 -1 -2 -3 -4 -5 -6 -6 -7 -8
-4 -5 -4 -4 -5 -5 -5 -5 -5 -5 -4 -4 -4 -4 -3 -3 -3 -3 -2 -3 -3 -3 -2 -1 -1 -2 -1 -0 -1 -3 -4 -4 -3 -2 -2 -3 -4 -5 -4 -5 -7 -7 -11
-5 -4 -3 -3 -4 -4 -4 -4 -4 -4 -5 -5 -5 -4 -3 -3 -4 -4 -4 -4 -4 -4 -4 -3 -3 -3 -3 -1 -3 -4 -5 -5 -5 -5 -5 -5 -6 -6 -5 -5 -5 -6 -9
-4 -3 -3 -2 -2 -3 -3 -3 -4 -4 -4 -4 -5 -5 -4 -4 -4 -4 -4 -4 -5 -5 -5 -5 -4 -4 -4 -3 -3 -5 -6 -6 -7 -6 -7 -7 -7 -7 -6 -5 -4 -2 -4
-3 -3 -2 -2 -1 -2 -2 -2 -3 -4 -4 -4 -5 -5 -5 -4 -4 -4 -4 -5 -5 -5 -6 -5 -5 -4 -4 -5 -6 -7 -7 -5 -6 -7 -8 -8 -7 -7 -6 -6 -5 -4 -4
-3 -2 -2 -2 -1 -1 -1 -2 -3 -4 -5 -6 -6 -6 -7 -6 -5 -5 -5 -5 -5 -5 -5 -5 -5 -5 -6 -7 -7 -4 -3 -4 -5 -8 -9 -8 -8 -7 -7 -6 -6 -6 -6
-3 -2 -2 -2 -2 -1 -2 -3 -4 -4 -5 -6 -6 -7 -7 -6 -5 -5 -6 -7 -7 -7 -7 -7 -8 -7 -6 -5 -5 -5 -4 -4 -4 -6 -8 -8 -8 -8 -8 -7 -8 -8 -8
-3 -2 -2 -2 -2 -3 -4 -4 -4 -5 -5 -6 -6 -6 -6 -6 -6 -6 -4 -5 -6 -6 -5 -5 -5 -6 -6 -6 -6 -6 -6 -6 -6 -7 -7 -8 -9 -9 -9 -9 -9 -9 -9
-3 -3 -2 -3 -4 -4 -4 -5 -5 -5 -5 -5 -5 -4 -5 -5 -5 -5 -6 -7 -6 -5 -4 -6 -7 -7 -7 -8 -8 -8 -8 -7 -7 -7 -8 -8 -9 -9 -10 -10 -10 -9 -10
-2 -2 -2 -3 -4 -4 -4 -5 -5 -6 -6 -5 -5 -5 -5 -5 -5 -5 -6 -7 -6 -5 -6 -8 -8 -8 -8 -8 -8 -8 -8 -8 -8 -8 -8 -8 -8 -9 -10 -10 -11 -11 -12
-1 -2 -3 -3 -3 -4 -4 -4 -5 -5 -5 -5 -5 -6 -6 -5 -6 -6 -6 -7 -6 -6 -7 -7 -8 -8 -8 -8 -8 -8 -8 -8 -8 -8 -8 -8 -9 -9 -11 -11 -12 -12 -13
-1 -2 -2 -3 -4 -4 -4 -5 -5 -5 -5 -5 -5 -5 -5 -5 -5 -6 -6 -6 -6 -7 -7 -7 -7 -7 -7 -7 -7 -8 -8 -8 -8 -9 -9 -9 -9 -10 -11 -11 -12 -12 -13
-1 -1 -2 -2 -3 -4 -5 -6 -6 -6 -6 -6 -6 -5 -5 -5 -6 -6 -6 -6 -6 -6 -7 -7 -7 -7 -7 -7 -7 -8 -8 -9 -9 -9 -9 -9 -10 -10 -11 -11 -12 -13 -14
-1 -1 -2 -3 -4 -5 -5 -5 -5 -5 -5 -5 -5 -5 -5 -5 -6 -6 -6 -7 -7 -7 -7 -7 -7 -7 -8 -8 -8 -8 -8 -8 -9 -9 -9 -10 -11 -11 -11 -12 -13 -14 -14
-1 -2 -3 -3 -3 -4 -4 -5 -5 -5 -5 -5 -5 -5 -5 -5 -5 -5 -6 -6 -6 -7 -7 -8 -8 -8 -8 -8 -8 -9 -9 -9 -10 -10 -10 -11 -11 -12 -13 -14 -14 -15 -16
-2 -2 -3 -3 -4 -4 -5 -5 -6 -6 -6 -5 -5 -5 -5 -5 -5 -5 -6 -6 -7 -8 -8 -9 -9 -9 -9 -9 -9 -10 -10 -10 -10 -10 -11 -11 -12 -13 -14 -15 -15 -16 -16
-3 -3 -4 -4 -5 -6 -6 -6 -6 -6 -6 -6 -6 -6 -6 -6 -6 -6 -7 -7 -8 -8 -9 -10 -10 -10 -10 -11 -11 -11 -11 -12 -12 -12 -12 -13 -13 -13 -14 -15 -15 -16 -16
-4 -5 -5 -5 -6 -7 -7 -7 -7 -7 -6 -6 -6 -6 -6 -6 -7 -7 -8 -9 -10 -10 -11 -11 -11 -12 -12 -12 -12 -12 -12 -12 -13 -13 -13 -14 -14 -14 -15 -15 -16 -16 -17
-5 -6 -7 -7 -7 -7 -7 -7 -7 -7 -7 -6 -6 -7 -7 -8 -9 -10 -10 -11 -12 -12 -12 -13 -13 -13 -13 -13 -14 -14 -14 -14 -14 -14 -14 -15 -15 -15 -16 -16 -16 -17 -17
Height
718 713 707 700 694 688 681 674 667 661 655 650 646 647 648 649 650 651 652 652 653 655 658 661 660 662 658 668 674 679 684 692 695 708 711 714 720 726 733 737 739 748 752
714 709 702 696 690 683 676 669 662 654 647 641 638 637 638 640 642 643 644 645 646 648 649 651 652 654 656 657 666 670 678 686 692 701 708 713 718 725 731 733 742 743 755
713 706 699 692 686 680 672 664 655 647 639 632 629 627 628 630 633 634 635 636 638 641 642 643 644 648 648 654 658 660 671 679 683 689 698 707 715 724 731 736 741 749 754
711 704 697 690 684 677 669 660 650 642 635 626 620 618 619 621 623 626 628 630 632 635 637 638 639 639 641 646 652 659 666 673 679 688 692 704 712 724 730 734 742 754 756
709 703 697 690 683 675 667 659 649 640 633 623 616 612 612 613 615 618 620 623 625 629 630 631 634 635 636 639 644 651 656 669 676 683 688 703 710 719 725 733 743 750 757
709 703 697 690 682 675 667 659 651 642 634 625 616 610 606 605 607 611 614 616 620 622 624 626 628 630 632 637 641 645 652 660 673 680 689 694 705 714 721 727 736 748 760
710 704 698 691 684 677 669 661 654 645 639 631 622 614 610 605 603 605 610 612 614 618 622 623 626 630 632 637 645 651 657 662 667 672 682 692 702 705 712 723 733 741 750
711 705 699 694 688 680 673 665 658 651 644 638 631 623 617 615 612 610 610 613 617 621 623 626 628 631 635 638 644 654 664 666 671 679 685 688 696 702 711 721 730 739 750
711 707 702 697 691 684 677 670 664 658 651 645 638 631 627 625 621 619 616 620 623 628 631 633 635 639 643 646 650 660 663 676 682 684 689 695 698 704 713 720 731 741 755
712 709 704 700 695 689 682 676 671 665 659 653 646 641 638 634 632 630 628 628 631 637 641 646 647 646 652 655 658 661 675 683 681 688 692 701 709 711 724 726 729 738 748
712 709 706 701 697 693 687 681 676 671 665 659 655 651 648 645 645 641 639 639 643 648 652 655 658 658 662 664 667 668 674 679 681 683 697 709 709 720 729 733 736 741 745
711 709 706 702 699 695 691 686 681 676 672 668 665 661 659 660 657 655 654 653 655 656 661 665 668 669 674 676 676 679 679 680 684 692 700 706 718 730 733 736 742 744 747
710 708 706 704 701 698 695 692 688 684 681 679 676 674 672 670 668 669 666 666 666 667 671 677 681 683 683 682 684 682 686 686 690 700 703 715 729 733 735 738 741 747 749
709 708 706 704 702 701 699 697 696 693 691 687 684 683 682 680 679 678 677 678 678 680 684 687 688 688 686 686 690 692 696 697 700 703 714 726 731 734 737 741 745 746 748
708 706 705 703 701 700 699 698 699 699 698 697 695 693 691 690 691 689 687 687 686 688 689 690 692 694 694 694 696 700 704 707 710 714 720 726 731 737 741 743 744 745 747
705 706 705 705 704 704 702 700 700 700 698 696 696 695 695 696 697 696 695 695 693 693 692 695 698 699 699 701 703 706 711 716 720 723 724 728 733 737 740 743 744 743 745
698 700 702 703 704 705 705 704 704 704 705 704 703 702 701 699 699 699 700 699 700 700 700 704 704 705 707 709 711 714 718 722 725 725 726 728 731 736 740 741 742 743 745
691 694 697 698 700 701 702 702 702 701 701 701 701 702 704 705 704 704 703 703 703 702 702 704 706 708 710 713 715 716 717 718 719 720 723 728 732 735 736 739 739 740 743
687 691 692 695 697 697 698 700 700 700 701 701 702 701 700 700 700 701 700 700 701 702 704 705 707 708 709 709 710 710 712 714 717 720 724 727 731 732 732 734 735 737 740
681 684 687 689 692 695 697 699 700 701 701 702 702 703 703 703 703 703 702 702 703 704 705 706 707 707 708 708 708 709 711 713 716 718 720 723 724 725 726 729 732 733 733
673 677 681 685 689 692 694 696 697 698 698 699 700 702 704 704 703 704 704 705 705 705 705 705 705 706 706 707 707 708 710 712 713 715 716 718 719 721 722 723 725 726 729
665 669 674 677 681 685 688 690 692 694 695 697 698 699 700 700 701 701 701 702 702 702 703 703 703 703 705 706 707 707 708 710 711 712 712 713 714 715 716 718 720 721 723
658 662 665 669 672 676 681 684 687 689 691 693 694 695 696 695 695 696 697 698 698 699 699 699 698 699 699 699 701 704 704 704 706 707 708 708 709 710 711 712 714 716 717
652 655 658 662 667 671 673 677 679 683 685 687 689 691 692 692 692 693 693 694 695 695 695 696 696 696 697 697 695 696 699 700 701 701 703 703 704 705 706 707 709 710 713
647 651 654 656 659 664 669 671 674 676 678 679 682 685 686 686 687 689 690 691 692 692 692 691 691 692 692 693 693 693 694 695 696 696 697 698 699 700 702 704 706 708 711
644 650 656 658 659 661 664 666 669 671 674 675 677 678 680 682 683 685 686 687 687 687 689 689 689 688 689 689 690 689 690 691 692 693 693 694 696 698 700 702 704 707 709
Wind_Speed
23 24 26 27 29 29 28 30 30 32 31 32 31 31 31 31 31 31 31 25 22 26 31 34 32 33 29 38 31 28 26 19 8 5 18 21 33 40 38 42 47 50 48
25 25 26 27 29 28 28 31 31 32 32 31 30 31 30 29 28 28 27 25 26 26 28 24 32 32 31 34 34 30 27 24 11 6 13 17 22 33 35 38 37 41 38
25 24 26 27 28 29 29 29 29 31 31 28 26 30 30 30 30 28 22 20 21 24 27 31 28 34 31 30 30 31 30 27 23 17 10 20 21 34 35 32 32 32 36
26 25 25 28 29 29 29 30 28 28 27 21 18 23 29 30 31 31 29 29 28 26 28 28 29 35 34 37 34 33 33 27 22 22 19 17 21 25 29 31 28 31 31
27 27 27 28 28 28 27 28 26 24 24 18 12 12 22 28 29 28 28 31 30 31 34 30 31 35 39 43 40 34 33 25 21 20 16 17 19 29 29 25 24 29 26
25 26 27 28 27 26 26 27 26 26 25 22 20 15 5 16 27 29 27 27 28 25 20 24 29 36 36 36 35 35 38 34 22 16 12 19 23 28 24 31 31 22 6
22 24 26 27 27 25 25 26 26 25 26 25 25 24 22 16 5 13 21 18 15 17 19 22 23 24 28 29 28 27 25 25 26 29 26 23 25 31 32 29 27 22 10
20 23 25 25 25 24 24 25 26 24 24 23 25 28 26 23 21 24 26 26 26 23 20 21 25 27 28 31 30 28 22 17 15 18 24 29 28 34 32 30 29 24 18
20 21 21 22 22 22 22 22 23 21 24 24 25 28 29 28 26 26 33 32 32 30 27 26 27 28 25 28 33 32 30 23 15 14 16 20 20 30 32 33 29 26 6
15 15 16 17 19 20 20 21 21 21 19 24 30 31 31 33 32 30 32 32 32 30 31 31 28 28 25 29 34 36 29 23 32 34 32 28 23 22 20 24 36 25 14
9 11 12 14 15 15 18 21 21 19 23 25 28 33 33 34 35 34 34 34 30 28 27 27 27 28 27 27 31 31 31 35 35 39 33 28 26 22 18 21 27 26 14
6 8 10 13 15 16 18 20 22 22 23 23 24 27 31 31 33 34 34 34 33 33 28 29 27 28 26 26 30 30 32 37 36 35 33 28 24 20 20 21 21 13 7
3 6 9 11 14 16 18 20 22 24 20 18 19 19 21 26 27 28 29 30 32 34 32 28 26 27 26 28 24 28 28 30 33 29 29 25 22 23 22 20 16 12 10
2 4 6 8 11 13 16 18 22 22 20 19 17 16 17 24 23 21 23 24 24 28 25 25 23 25 28 30 27 25 25 27 28 30 27 24 22 20 19 17 16 14 12
6 4 4 4 7 10 13 15 17 18 16 16 17 18 19 18 17 18 21 22 22 22 24 25 26 26 27 26 25 22 20 20 23 24 24 22 19 17 14 12 12 11 6
9 8 6 3 3 6 10 13 11 12 13 14 15 17 17 15 15 16 18 17 16 13 20 20 18 17 19 19 19 18 15 14 14 15 15 16 15 14 12 11 9 8 8
15 12 10 7 4 2 2 4 6 6 11 13 12 11 12 11 10 9 10 12 13 12 18 14 15 14 14 13 12 11 12 12 12 12 12 11 11 12 13 12 10 10 10
18 16 14 11 9 6 3 1 3 4 4 4 7 8 8 8 8 8 7 7 10 12 11 9 9 9 9 9 9 9 9 9 7 7 8 10 13 14 15 15 15 14 13
21 19 16 13 11 10 8 6 3 2 2 2 3 3 4 4 4 3 3 6 7 6 5 5 5 4 5 5 6 6 7 8 9 10 13 14 15 16 15 16 15 16 16
25 22 20 18 16 14 11 9 6 4 2 1 0 1 2 2 2 4 6 8 8 8 7 6 4 3 3 4 5 6 8 10 12 14 16 16 17 18 19 19 19 18 19
30 26 23 18 17 15 13 13 11 10 8 7 5 0 3 4 4 4 5 7 8 9 10 10 11 12 12 11 12 12 13 14 16 16 17 19 19 21 22 21 20 20 19
31 28 26 24 21 20 19 16 14 13 11 11 10 7 6 8 8 8 8 8 9 10 11 11 11 12 13 15 16 17 18 19 20 20 21 21 21 22 22 21 20 19 18
31 28 26 25 23 21 19 18 17 16 15 14 14 13 12 13 13 12 11 9 9 9 12 14 14 14 14 15 16 17 19 19 18 17 19 19 20 20 19 19 18 16 15
30 29 27 25 22 20 20 19 17 16 16 16 15 16 16 16 15 12 10 9 8 10 11 11 11 11 11 13 13 14 15 14 14 15 15 16 16 16 15 16 16 15 14
27 26 25 24 22 20 18 17 17 17 17 16 15 15 16 14 11 9 8 6 8 9 9 9 9 8 8 9 10 10 11 11 12 12 13 13 14 13 14 14 13 12 12
21 19 17 15 14 13 14 14 14 12 13 11 12 11 9 7 6 4 4 6 5 4 4 4 5 6 7 7 7 7 8 9 10 11 10 11 12 12 12 11 11 11 11
Wind_Direction
322 320 317 316 311 309 301 296 294 289 285 286 255 248 246 246 243 240 241 246 237 232 231 234 236 228 218 217 209 205 205 217 202 161 198 206 201 205 200 195 188 174 169
325 323 323 321 317 314 308 304 303 297 293 284 266 248 242 242 240 242 244 245 237 239 245 246 232 225 209 195 195 195 198 205 171 156 155 166 186 187 181 166 164 163 166
327 329 328 324 322 319 314 315 317 313 304 296 276 246 239 236 234 236 238 253 250 246 246 243 242 224 200 192 191 189 192 188 190 166 139 166 160 174 163 158 156 152 154
333 337 334 332 330 326 326 327 334 335 320 314 292 257 240 232 232 240 244 246 249 252 255 252 246 219 197 190 182 183 184 177 162 139 118 131 143 153 154 143 136 153 150
340 345 343 344 343 340 341 345 347 355 349 350 329 283 249 236 234 233 231 233 237 245 244 247 242 223 206 201 190 183 174 155 146 140 129 149 144 156 163 158 144 148 149
345 347 354 353 352 350 353 355 350 358 1 8 22 30 351 243 235 231 228 232 235 234 228 230 223 214 205 200 192 190 186 163 145 139 153 159 167 169 160 158 149 148 150
348 355 2 2 356 359 1 6 2 8 9 14 25 33 40 50 140 209 215 206 190 187 180 170 159 160 157 157 152 157 159 165 175 174 154 163 163 168 158 154 159 160 148
2 2 10 7 359 7 8 16 8 13 21 21 30 40 43 54 74 101 125 114 104 100 111 118 120 128 137 139 135 126 125 131 162 182 180 175 175 167 164 159 156 148 138
13 10 11 17 11 13 11 14 17 21 29 30 35 43 51 56 68 79 96 89 84 82 93 108 116 110 117 133 123 106 97 94 114 142 150 159 156 164 173 165 147 138 104
5 8 15 25 30 30 27 25 27 30 31 42 43 44 53 58 63 71 79 81 75 73 73 78 92 100 111 126 121 111 104 110 110 107 103 106 125 144 168 180 167 147 130
6 11 23 33 40 44 46 45 42 34 46 46 48 47 49 60 63 70 77 80 81 75 71 68 75 89 104 117 123 117 118 120 112 115 119 124 125 140 156 169 169 167 146
15 32 40 43 47 50 57 53 55 49 45 43 48 49 50 56 67 72 77 83 87 84 80 82 84 91 100 106 108 113 119 123 121 119 120 117 124 136 142 154 165 170 168
58 61 55 50 49 47 52 55 53 54 44 41 47 46 44 59 69 68 75 83 86 87 89 92 95 99 99 96 100 114 121 118 120 119 119 128 142 142 140 142 146 153 146
168 109 86 71 64 55 50 52 57 52 52 50 52 56 57 63 71 78 85 94 98 100 100 99 97 101 104 110 110 110 118 124 128 127 131 138 140 140 146 153 151 148 140
215 197 160 126 105 94 76 57 56 50 44 58 61 62 60 60 59 72 82 85 91 95 100 98 99 104 105 103 103 107 112 123 129 136 142 147 150 156 159 163 166 165 162
225 232 226 202 138 115 112 102 75 70 70 69 61 59 61 65 71 79 82 74 76 91 92 92 89 97 103 109 110 109 114 122 132 143 145 153 163 171 173 182 187 194 196
218 222 229 231 227 209 11 29 51 59 65 69 76 85 81 85 84 84 81 70 80 107 102 107 109 110 115 120 124 133 141 146 149 152 155 162 176 190 198 203 208 211 215
209 218 227 227 226 230 253 330 70 80 82 59 58 89 91 96 100 114 120 109 84 85 101 111 123 128 141 152 154 148 152 164 168 174 185 198 206 211 209 217 220 224 225
212 218 222 228 230 226 224 221 202 154 110 70 47 49 30 34 56 65 20 47 46 52 67 87 114 146 170 180 187 194 201 206 212 215 221 225 228 229 234 235 236 238 237
213 218 221 221 222 225 226 222 214 215 210 215 84 68 39 359 322 322 315 319 325 328 326 320 311 278 249 237 231 231 231 230 232 234 236 238 239 241 246 249 245 240 238
215 214 218 221 224 226 229 230 232 227 223 217 189 33 336 312 306 289 288 285 286 289 292 292 289 283 276 267 258 251 249 248 247 248 248 247 245 243 247 249 250 248 246
217 216 214 217 219 220 225 229 229 232 233 232 241 243 229 238 254 261 265 270 276 280 282 280 277 272 267 263 258 252 249 250 250 250 249 249 249 250 250 248 247 244 240
218 216 215 218 221 223 224 227 228 231 235 241 244 246 241 240 244 246 251 254 255 270 271 267 266 264 260 253 250 250 249 249 252 253 251 251 249 248 246 242 238 226 220
218 219 217 220 222 222 226 230 231 236 242 247 247 253 259 260 255 251 245 234 254 264 277 271 264 259 254 252 247 245 248 248 245 246 246 246 246 243 237 233 231 230 229
218 217 218 219 219 223 229 232 237 242 246 249 254 261 268 265 246 225 220 242 269 277 272 264 260 257 250 245 247 246 245 242 242 241 238 238 238 234 230 228 223 215 206
213 217 220 223 224 225 229 232 239 244 250 254 257 254 236 205 193 213 263 283 284 279 273 257 252 253 253 256 259 260 250 240 235 233 227 223 220 217 214 209 200 193 190